QPF
0.00 0.00 0.00 0.00 0.00 0.00 0.00 0.00 0.00 0.00 0.00 0.00 0.00 0.00 0.00 0.00 0.00 0.00 0.00 0.00 0.00 0.00 0.00 0.00 0.00 0.00 0.01 0.01 0.00 0.00 0.00 0.00 0.00 0.00 0.00 0.00 0.00 0.00 0.00 0.00 0.00 0.00
0.00 0.00 0.00 0.00 0.00 0.00 0.00 0.00 0.00 0.00 0.00 0.00 0.00 0.00 0.00 0.00 0.00 0.00 0.00 0.00 0.00 0.00 0.00 0.00 0.00 0.00 0.00 0.00 0.00 0.00 0.00 0.00 0.00 0.00 0.00 0.00 0.00 0.00 0.00 0.00 0.00 0.00
0.00 0.00 0.00 0.00 0.00 0.00 0.00 0.00 0.00 0.00 0.00 0.00 0.00 0.00 0.00 0.00 0.00 0.00 0.00 0.00 0.00 0.00 0.00 0.00 0.00 0.00 0.00 0.00 0.00 0.00 0.00 0.00 0.00 0.00 0.00 0.00 0.00 0.00 0.00 0.00 0.00 0.00
0.00 0.00 0.00 0.00 0.00 0.00 0.00 0.00 0.00 0.00 0.00 0.00 0.00 0.00 0.00 0.00 0.00 0.00 0.00 0.00 0.00 0.00 0.00 0.00 0.00 0.00 0.00 0.00 0.00 0.00 0.00 0.00 0.00 0.00 0.00 0.00 0.00 0.00 0.00 0.00 0.00 0.00
0.00 0.00 0.00 0.00 0.00 0.00 0.00 0.00 0.00 0.00 0.00 0.00 0.00 0.00 0.00 0.00 0.00 0.00 0.00 0.00 0.00 0.00 0.00 0.00 0.00 0.00 0.00 0.00 0.00 0.00 0.00 0.00 0.00 0.00 0.00 0.00 0.00 0.00 0.00 0.00 0.00 0.00
0.00 0.00 0.00 0.00 0.00 0.00 0.00 0.00 0.00 0.00 0.00 0.00 0.00 0.00 0.00 0.00 0.00 0.00 0.00 0.00 0.00 0.00 0.00 0.00 0.00 0.00 0.00 0.00 0.00 0.00 0.00 0.00 0.00 0.00 0.00 0.00 0.00 0.00 0.00 0.00 0.00 0.00
0.00 0.00 0.00 0.00 0.00 0.00 0.00 0.00 0.00 0.00 0.00 0.00 0.00 0.00 0.00 0.00 0.00 0.00 0.00 0.00 0.00 0.00 0.00 0.00 0.00 0.00 0.00 0.00 0.00 0.00 0.00 0.00 0.00 0.00 0.00 0.00 0.00 0.00 0.00 0.00 0.00 0.00
0.00 0.00 0.00 0.00 0.00 0.00 0.00 0.00 0.00 0.00 0.00 0.00 0.00 0.00 0.00 0.00 0.00 0.00 0.00 0.00 0.00 0.00 0.00 0.00 0.00 0.00 0.00 0.00 0.00 0.00 0.00 0.00 0.00 0.00 0.00 0.00 0.00 0.00 0.00 0.00 0.00 0.00
0.00 0.00 0.00 0.00 0.00 0.00 0.00 0.00 0.00 0.00 0.00 0.00 0.00 0.00 0.00 0.00 0.00 0.00 0.00 0.00 0.00 0.00 0.00 0.00 0.00 0.00 0.00 0.00 0.00 0.00 0.00 0.00 0.00 0.00 0.00 0.00 0.00 0.00 0.00 0.00 0.00 0.00
0.00 0.00 0.00 0.00 0.00 0.00 0.00 0.00 0.00 0.00 0.00 0.00 0.00 0.00 0.00 0.00 0.00 0.00 0.00 0.00 0.00 0.00 0.00 0.00 0.00 0.00 0.00 0.00 0.00 0.00 0.00 0.00 0.00 0.00 0.00 0.00 0.00 0.00 0.00 0.00 0.00 0.00
0.00 0.00 0.00 0.00 0.00 0.00 0.00 0.00 0.00 0.00 0.00 0.00 0.00 0.00 0.00 0.00 0.00 0.00 0.00 0.00 0.00 0.00 0.00 0.00 0.00 0.00 0.00 0.00 0.00 0.00 0.00 0.00 0.00 0.00 0.00 0.00 0.00 0.00 0.00 0.00 0.00 0.00
0.00 0.00 0.00 0.00 0.00 0.00 0.00 0.00 0.00 0.00 0.00 0.00 0.00 0.00 0.00 0.00 0.00 0.00 0.00 0.00 0.00 0.00 0.00 0.00 0.00 0.00 0.00 0.00 0.00 0.00 0.00 0.00 0.00 0.00 0.00 0.00 0.00 0.00 0.00 0.00 0.00 0.00
0.00 0.00 0.00 0.00 0.00 0.00 0.00 0.00 0.00 0.00 0.00 0.00 0.00 0.00 0.00 0.00 0.00 0.00 0.00 0.00 0.00 0.00 0.00 0.00 0.00 0.00 0.00 0.00 0.00 0.00 0.00 0.00 0.00 0.00 0.00 0.00 0.00 0.00 0.00 0.00 0.00 0.00
0.00 0.00 0.00 0.00 0.00 0.00 0.00 0.00 0.00 0.00 0.00 0.00 0.00 0.00 0.00 0.00 0.00 0.00 0.00 0.00 0.00 0.00 0.00 0.00 0.00 0.00 0.00 0.00 0.00 0.00 0.00 0.00 0.00 0.00 0.00 0.00 0.00 0.00 0.00 0.00 0.00 0.00
0.00 0.00 0.00 0.00 0.00 0.00 0.00 0.00 0.00 0.00 0.00 0.00 0.00 0.00 0.00 0.00 0.00 0.00 0.00 0.00 0.00 0.00 0.00 0.00 0.00 0.00 0.00 0.00 0.00 0.00 0.00 0.00 0.00 0.00 0.00 0.00 0.00 0.00 0.00 0.00 0.00 0.00
0.00 0.00 0.00 0.00 0.00 0.00 0.00 0.00 0.00 0.00 0.00 0.00 0.00 0.00 0.00 0.00 0.00 0.00 0.00 0.00 0.00 0.00 0.00 0.00 0.00 0.00 0.00 0.00 0.00 0.00 0.00 0.00 0.00 0.00 0.00 0.00 0.00 0.00 0.00 0.00 0.00 0.00
0.00 0.00 0.00 0.00 0.00 0.00 0.00 0.00 0.00 0.00 0.00 0.00 0.00 0.00 0.00 0.00 0.00 0.00 0.00 0.00 0.00 0.00 0.00 0.00 0.00 0.00 0.00 0.00 0.00 0.00 0.00 0.00 0.00 0.00 0.00 0.00 0.00 0.00 0.00 0.00 0.00 0.00
0.00 0.00 0.00 0.00 0.00 0.00 0.00 0.00 0.00 0.00 0.00 0.00 0.00 0.00 0.00 0.00 0.00 0.00 0.00 0.00 0.00 0.00 0.00 0.00 0.00 0.00 0.00 0.00 0.00 0.00 0.00 0.00 0.00 0.00 0.00 0.00 0.00 0.00 0.00 0.00 0.00 0.00
0.00 0.00 0.00 0.00 0.00 0.00 0.00 0.00 0.00 0.00 0.00 0.00 0.00 0.00 0.00 0.00 0.00 0.00 0.00 0.00 0.00 0.00 0.00 0.00 0.00 0.00 0.00 0.00 0.00 0.00 0.00 0.00 0.00 0.00 0.00 0.00 0.00 0.00 0.00 0.00 0.00 0.00
0.00 0.00 0.00 0.00 0.00 0.00 0.00 0.00 0.00 0.00 0.00 0.00 0.00 0.00 0.00 0.00 0.00 0.00 0.00 0.00 0.00 0.00 0.00 0.00 0.00 0.00 0.00 0.00 0.00 0.00 0.00 0.00 0.00 0.00 0.00 0.00 0.00 0.00 0.00 0.00 0.00 0.00
0.00 0.00 0.00 0.00 0.00 0.00 0.00 0.00 0.00 0.00 0.00 0.00 0.00 0.00 0.00 0.00 0.00 0.00 0.00 0.00 0.00 0.00 0.00 0.00 0.00 0.00 0.00 0.00 0.00 0.00 0.00 0.00 0.00 0.00 0.00 0.00 0.00 0.00 0.00 0.00 0.00 0.00
0.00 0.00 0.00 0.00 0.00 0.00 0.00 0.00 0.00 0.00 0.00 0.00 0.00 0.00 0.00 0.00 0.00 0.00 0.00 0.00 0.00 0.00 0.00 0.00 0.00 0.00 0.00 0.00 0.00 0.00 0.00 0.00 0.00 0.00 0.00 0.00 0.00 0.00 0.00 0.00 0.00 0.00
0.00 0.00 0.00 0.00 0.00 0.00 0.00 0.00 0.00 0.00 0.00 0.00 0.00 0.00 0.00 0.00 0.00 0.00 0.00 0.00 0.00 0.00 0.00 0.00 0.00 0.00 0.00 0.00 0.00 0.00 0.00 0.00 0.00 0.00 0.00 0.00 0.00 0.00 0.00 0.00 0.00 0.00
0.00 0.00 0.00 0.00 0.00 0.00 0.00 0.00 0.00 0.00 0.00 0.00 0.00 0.00 0.00 0.00 0.00 0.00 0.00 0.00 0.00 0.00 0.00 0.00 0.00 0.00 0.00 0.00 0.00 0.00 0.00 0.00 0.00 0.00 0.00 0.00 0.00 0.00 0.00 0.00 0.00 0.00
0.00 0.00 0.00 0.00 0.00 0.00 0.00 0.00 0.00 0.00 0.00 0.00 0.00 0.00 0.00 0.00 0.00 0.00 0.00 0.00 0.00 0.00 0.00 0.00 0.00 0.00 0.00 0.00 0.00 0.00 0.00 0.00 0.00 0.00 0.00 0.00 0.00 0.00 0.00 0.00 0.00 0.00
0.00 0.00 0.00 0.00 0.00 0.00 0.00 0.00 0.00 0.00 0.00 0.00 0.00 0.00 0.00 0.00 0.00 0.00 0.00 0.00 0.00 0.00 0.00 0.00 0.00 0.00 0.00 0.00 0.00 0.00 0.00 0.00 0.00 0.00 0.00 0.00 0.00 0.00 0.00 0.00 0.00 0.00
MSLP
1012.05 1012.25 1012.57 1012.81 1012.97 1013.05 1013.25 1013.53 1013.57 1013.81 1013.97 1013.93 1014.21 1014.29 1014.41 1014.33 1014.37 1014.57 1014.73 1014.93 1015.25 1015.49 1015.69 1015.97 1016.17 1016.49 1016.73 1016.93 1017.13 1017.33 1017.49 1017.73 1017.85 1017.93 1018.37 1018.57 1018.81 1018.97 1019.13 1019.21 1019.25 1019.33
1011.65 1011.81 1012.05 1012.29 1012.57 1012.61 1012.73 1012.81 1013.09 1013.33 1013.57 1013.61 1013.57 1013.61 1013.73 1013.89 1014.05 1014.25 1014.53 1014.77 1014.97 1015.21 1015.33 1015.65 1015.93 1016.17 1016.45 1016.73 1016.97 1017.21 1017.37 1017.53 1017.85 1017.49 1018.13 1018.45 1018.57 1018.65 1018.81 1018.85 1019.01 1018.97
1011.25 1011.53 1011.77 1012.05 1012.13 1012.25 1012.33 1012.41 1012.61 1012.81 1013.01 1013.05 1013.13 1013.25 1013.41 1013.45 1013.77 1013.89 1014.13 1014.41 1014.69 1014.85 1015.09 1015.25 1015.57 1015.85 1016.09 1016.37 1016.69 1016.93 1017.17 1017.37 1017.69 1017.41 1017.85 1018.21 1018.25 1018.45 1018.41 1018.45 1018.61 1018.77
1010.77 1010.89 1011.13 1011.37 1011.53 1011.81 1011.93 1012.17 1012.33 1012.45 1012.49 1012.81 1012.89 1012.81 1012.97 1013.05 1013.29 1013.61 1013.85 1014.09 1014.37 1014.57 1014.65 1014.89 1015.17 1015.41 1015.73 1016.05 1016.41 1016.65 1016.73 1017.05 1017.13 1017.21 1017.65 1017.85 1017.97 1018.05 1018.17 1018.17 1018.29 1018.45
1010.17 1010.45 1010.61 1010.81 1010.97 1011.17 1011.49 1011.85 1011.97 1012.05 1012.21 1012.21 1012.29 1012.45 1012.69 1012.93 1013.13 1013.33 1013.57 1013.85 1014.05 1014.29 1014.41 1014.61 1014.81 1015.09 1015.33 1015.73 1016.09 1016.41 1016.41 1016.77 1016.85 1017.09 1017.49 1017.85 1017.73 1017.85 1017.85 1017.97 1018.21 1018.41
1009.57 1009.81 1010.09 1010.37 1010.57 1010.89 1011.17 1011.33 1011.45 1011.53 1011.69 1011.89 1011.97 1011.97 1012.21 1012.49 1012.77 1012.93 1013.13 1013.45 1013.61 1013.85 1014.01 1014.17 1014.49 1014.69 1014.93 1015.33 1015.73 1016.01 1016.05 1016.37 1016.45 1016.85 1017.33 1017.57 1017.53 1017.41 1017.49 1017.65 1018.01 1018.29
1009.13 1009.37 1009.69 1009.81 1010.17 1010.33 1010.69 1010.81 1010.93 1011.05 1011.17 1011.21 1011.41 1011.73 1011.73 1012.09 1012.41 1012.57 1012.73 1012.97 1013.17 1013.41 1013.61 1013.81 1014.09 1014.37 1014.53 1014.93 1015.37 1015.69 1015.77 1015.97 1016.09 1016.57 1017.09 1017.17 1017.25 1017.29 1017.25 1017.45 1017.77 1018.05
1008.41 1008.65 1009.01 1009.33 1009.73 1009.97 1010.29 1010.37 1010.49 1010.65 1010.69 1010.89 1011.21 1011.25 1011.33 1011.61 1011.89 1012.09 1012.33 1012.57 1012.85 1013.13 1013.29 1013.45 1013.69 1014.01 1014.17 1014.45 1015.01 1015.33 1015.57 1015.61 1015.89 1016.21 1016.73 1016.89 1016.89 1017.17 1017.17 1017.21 1017.53 1017.85
1007.77 1008.17 1008.45 1008.89 1009.25 1009.45 1009.65 1009.77 1009.93 1010.09 1010.17 1010.57 1010.73 1010.77 1010.93 1011.13 1011.37 1011.61 1011.93 1012.21 1012.53 1012.73 1013.01 1013.25 1013.41 1013.65 1013.77 1014.09 1014.45 1014.85 1015.17 1015.29 1015.37 1015.73 1016.17 1016.53 1016.69 1016.77 1016.89 1016.93 1017.29 1017.49
1007.33 1007.53 1007.89 1008.21 1008.65 1008.73 1008.97 1009.05 1009.17 1009.45 1009.61 1009.97 1010.17 1010.25 1010.57 1010.77 1010.89 1011.17 1011.49 1011.89 1012.25 1012.49 1012.69 1012.93 1013.13 1013.29 1013.49 1013.65 1014.01 1014.29 1014.61 1014.89 1015.05 1015.25 1015.49 1015.81 1016.05 1016.25 1016.41 1016.61 1016.89 1017.17
1006.73 1006.93 1007.33 1007.61 1007.81 1007.93 1008.21 1008.33 1008.49 1008.69 1008.97 1009.37 1009.61 1009.89 1009.97 1010.33 1010.65 1010.77 1011.17 1011.49 1011.89 1012.13 1012.33 1012.53 1012.73 1012.89 1013.21 1013.33 1013.49 1013.65 1013.97 1014.29 1014.53 1014.81 1015.05 1015.25 1015.37 1015.57 1015.77 1016.05 1016.33 1016.57
1006.05 1006.37 1006.65 1006.85 1007.05 1007.21 1007.41 1007.61 1007.77 1008.09 1008.33 1008.65 1008.93 1009.37 1009.53 1009.69 1010.13 1010.37 1010.65 1011.05 1011.29 1011.53 1011.73 1011.97 1012.17 1012.41 1012.69 1012.89 1013.05 1013.25 1013.49 1013.69 1013.93 1014.25 1014.45 1014.69 1014.81 1014.97 1015.17 1015.37 1015.73 1015.97
1005.37 1005.65 1005.81 1006.09 1006.41 1006.61 1006.69 1006.97 1007.21 1007.37 1007.65 1007.97 1008.21 1008.61 1009.01 1009.21 1009.37 1009.85 1010.05 1010.41 1010.77 1010.97 1011.21 1011.45 1011.69 1011.89 1012.17 1012.45 1012.61 1012.81 1013.09 1013.37 1013.53 1013.77 1013.97 1014.17 1014.29 1014.37 1014.49 1014.73 1015.01 1015.29
1004.53 1004.77 1005.13 1005.37 1005.57 1006.01 1006.29 1006.41 1006.61 1006.85 1007.09 1007.33 1007.57 1008.05 1008.37 1008.53 1008.77 1009.13 1009.49 1009.81 1010.09 1010.37 1010.57 1010.77 1011.13 1011.41 1011.65 1011.89 1012.17 1012.37 1012.61 1012.93 1013.09 1013.33 1013.57 1013.69 1013.81 1013.89 1013.93 1014.13 1014.37 1014.61
1003.93 1004.25 1004.53 1004.93 1005.25 1005.65 1006.01 1006.17 1006.29 1006.49 1006.69 1006.93 1007.21 1007.45 1007.61 1007.77 1007.97 1008.25 1008.85 1009.33 1009.49 1009.77 1010.01 1010.17 1010.49 1010.73 1010.89 1011.21 1011.61 1012.01 1012.13 1012.45 1012.65 1012.85 1013.05 1013.33 1013.45 1013.45 1013.49 1013.61 1013.73 1013.89
1003.41 1003.77 1004.13 1004.49 1004.93 1005.29 1005.53 1005.77 1005.97 1006.13 1006.37 1006.65 1006.85 1007.01 1007.21 1007.41 1007.57 1007.85 1008.13 1008.61 1009.09 1009.29 1009.49 1009.65 1009.81 1009.85 1010.05 1010.49 1010.81 1011.13 1011.57 1011.85 1012.09 1012.29 1012.53 1012.73 1013.01 1013.17 1013.13 1013.17 1013.21 1013.21
1002.97 1003.37 1003.73 1004.21 1004.45 1004.73 1005.01 1005.33 1005.61 1005.81 1006.05 1006.33 1006.57 1006.73 1006.97 1007.13 1007.41 1007.65 1007.73 1007.85 1008.29 1008.69 1009.01 1009.09 1009.09 1009.05 1009.49 1010.01 1010.37 1010.69 1010.93 1011.29 1011.65 1011.89 1012.01 1012.21 1012.41 1012.69 1012.81 1012.73 1012.69 1012.73
1002.41 1002.89 1003.37 1003.69 1004.01 1004.33 1004.53 1004.85 1005.17 1005.49 1005.81 1006.05 1006.29 1006.57 1006.69 1006.77 1007.09 1007.21 1007.29 1007.37 1007.57 1007.89 1008.21 1008.33 1008.37 1008.41 1009.05 1009.49 1009.97 1010.33 1010.53 1010.73 1011.01 1011.33 1011.49 1011.69 1011.77 1011.89 1012.05 1012.13 1012.25 1012.33
1001.97 1002.45 1002.85 1003.21 1003.45 1003.73 1004.13 1004.49 1004.85 1005.17 1005.49 1005.73 1006.01 1006.01 1006.21 1006.53 1006.61 1006.77 1006.93 1006.97 1007.09 1007.41 1007.57 1007.61 1007.73 1007.85 1008.53 1009.05 1009.49 1009.85 1010.13 1010.37 1010.41 1010.61 1010.89 1011.01 1011.05 1011.17 1011.29 1011.53 1011.69 1011.93
1001.57 1001.97 1002.41 1002.65 1002.97 1003.41 1003.77 1004.17 1004.49 1004.77 1004.85 1005.05 1005.33 1005.57 1005.89 1006.09 1006.21 1006.41 1006.49 1006.65 1006.73 1006.93 1007.09 1007.05 1007.09 1007.29 1007.97 1008.57 1009.01 1009.41 1009.77 1010.05 1009.97 1010.09 1010.21 1010.25 1010.37 1010.45 1010.61 1010.81 1011.05 1011.33
1001.21 1001.49 1001.89 1002.29 1002.65 1003.05 1003.45 1003.81 1004.01 1004.25 1004.53 1004.57 1004.77 1005.09 1005.45 1005.69 1005.85 1006.05 1006.05 1006.13 1006.25 1006.37 1006.61 1006.65 1006.45 1006.77 1007.49 1008.05 1008.57 1009.09 1009.49 1009.85 1009.65 1009.61 1009.65 1009.73 1009.73 1009.81 1009.97 1010.13 1010.33 1010.53
1000.61 1001.09 1001.53 1001.93 1002.33 1002.69 1003.09 1003.37 1003.57 1003.77 1004.05 1004.13 1004.37 1004.45 1004.57 1004.85 1005.13 1005.21 1005.45 1005.69 1005.77 1005.93 1006.05 1006.17 1005.85 1006.33 1007.01 1007.61 1008.13 1008.69 1009.17 1009.49 1009.29 1009.33 1009.29 1009.29 1009.33 1009.37 1009.53 1009.61 1009.77 1009.89
1000.09 1000.69 1001.17 1001.57 1001.89 1002.33 1002.61 1002.81 1003.05 1003.25 1003.49 1003.61 1004.09 1004.09 1004.25 1004.41 1004.45 1004.61 1004.73 1005.01 1005.21 1005.37 1005.61 1005.65 1005.61 1005.97 1006.69 1007.21 1007.73 1008.21 1008.85 1008.77 1008.81 1008.93 1008.97 1008.97 1008.89 1008.89 1009.01 1008.97 1009.09 1009.21
999.77 1000.29 1000.85 1001.25 1001.57 1001.93 1002.01 1002.09 1002.25 1002.53 1002.85 1002.89 1003.41 1003.73 1003.85 1003.69 1003.85 1004.17 1004.17 1004.29 1004.53 1004.77 1004.85 1005.29 1005.25 1005.37 1006.13 1006.69 1007.21 1007.77 1007.89 1008.01 1008.17 1008.37 1008.45 1008.45 1008.41 1008.41 1008.33 1008.33 1008.41 1008.73
999.49 999.89 1000.33 1000.73 1001.09 1001.21 1001.37 1001.81 1002.09 1002.29 1002.41 1002.65 1002.89 1003.09 1003.25 1003.29 1003.45 1003.69 1003.77 1003.85 1003.89 1004.13 1004.37 1004.77 1004.73 1004.89 1005.37 1005.85 1006.37 1006.89 1007.25 1007.33 1007.57 1007.85 1008.17 1008.01 1008.05 1008.05 1007.77 1007.85 1008.05 1008.29
998.81 999.37 999.77 1000.17 1000.61 1000.93 1001.17 1001.41 1001.57 1001.85 1002.05 1002.25 1002.41 1002.57 1002.85 1002.97 1003.05 1003.17 1003.49 1003.45 1003.33 1003.61 1003.69 1003.85 1004.09 1004.01 1004.61 1005.05 1005.49 1005.93 1006.25 1006.45 1006.73 1007.41 1007.53 1007.61 1007.61 1007.49 1007.73 1007.69 1007.73 1007.89
Thickness
5819 5819 5817 5817 5816 5816 5816 5815 5815 5814 5813 5813 5813 5812 5813 5813 5814 5813 5810 5809 5806 5804 5803 5800 5798 5796 5794 5792 5791 5790 5788 5786 5784 5783 5780 5776 5774 5772 5770 5768 5768 5765
5821 5821 5820 5818 5818 5818 5818 5818 5817 5816 5815 5815 5816 5816 5816 5816 5815 5814 5812 5810 5808 5806 5805 5802 5800 5798 5795 5794 5792 5790 5789 5786 5786 5785 5781 5777 5776 5775 5772 5771 5770 5767
5823 5823 5821 5820 5820 5819 5820 5820 5819 5818 5818 5818 5818 5818 5818 5818 5817 5815 5813 5812 5809 5808 5806 5804 5801 5800 5797 5796 5794 5791 5790 5787 5786 5786 5783 5779 5778 5776 5775 5774 5772 5770
5826 5825 5825 5824 5823 5822 5821 5821 5820 5820 5820 5820 5820 5820 5820 5820 5818 5817 5815 5813 5811 5809 5808 5806 5804 5802 5799 5797 5795 5793 5792 5789 5788 5788 5783 5781 5780 5779 5777 5776 5774 5773
5829 5829 5827 5826 5825 5824 5823 5822 5822 5822 5822 5821 5822 5822 5821 5820 5819 5818 5816 5815 5812 5811 5809 5807 5805 5803 5801 5799 5796 5795 5794 5792 5790 5788 5784 5781 5781 5780 5780 5778 5775 5773
5833 5831 5830 5829 5828 5826 5824 5824 5824 5824 5824 5824 5824 5823 5823 5822 5820 5819 5817 5816 5814 5812 5811 5809 5807 5805 5803 5801 5798 5796 5796 5794 5792 5789 5784 5783 5782 5783 5782 5779 5776 5774
5835 5834 5832 5831 5830 5828 5826 5826 5826 5826 5826 5826 5825 5825 5825 5823 5821 5821 5819 5817 5816 5814 5813 5810 5808 5806 5805 5803 5799 5797 5797 5795 5794 5790 5786 5785 5784 5783 5782 5781 5778 5775
5839 5837 5835 5833 5831 5829 5828 5828 5828 5828 5828 5827 5826 5826 5826 5825 5823 5822 5820 5819 5817 5814 5813 5811 5809 5808 5806 5805 5801 5799 5798 5797 5795 5792 5787 5786 5786 5783 5783 5782 5779 5776
5842 5840 5838 5836 5833 5832 5831 5831 5830 5830 5829 5828 5827 5827 5827 5826 5825 5823 5821 5819 5817 5815 5814 5812 5810 5808 5807 5807 5804 5800 5799 5798 5797 5795 5791 5789 5787 5785 5784 5783 5781 5778
5844 5843 5841 5839 5837 5836 5834 5834 5834 5832 5832 5830 5829 5829 5828 5827 5826 5824 5822 5819 5817 5815 5814 5812 5810 5809 5808 5807 5806 5803 5801 5799 5798 5797 5795 5793 5791 5789 5787 5785 5783 5780
5847 5846 5844 5842 5841 5840 5838 5837 5837 5835 5834 5832 5830 5829 5829 5828 5826 5824 5822 5820 5818 5815 5814 5812 5811 5809 5808 5808 5807 5806 5804 5802 5801 5799 5798 5796 5795 5793 5791 5788 5786 5784
5850 5849 5847 5846 5844 5843 5842 5841 5839 5838 5836 5835 5832 5831 5829 5829 5827 5825 5824 5821 5818 5817 5815 5814 5813 5811 5809 5808 5809 5808 5806 5804 5803 5801 5800 5799 5798 5796 5794 5792 5789 5787
5854 5853 5851 5850 5848 5847 5845 5844 5842 5841 5840 5838 5836 5833 5831 5830 5829 5827 5825 5823 5820 5819 5817 5815 5814 5813 5812 5811 5810 5810 5808 5806 5805 5803 5802 5801 5800 5799 5798 5796 5793 5790
5858 5856 5855 5853 5851 5849 5846 5845 5844 5843 5841 5840 5838 5835 5833 5833 5832 5829 5827 5825 5822 5821 5819 5818 5816 5815 5814 5813 5811 5811 5809 5807 5806 5804 5803 5802 5801 5802 5801 5799 5796 5794
5861 5859 5857 5855 5853 5850 5847 5846 5846 5844 5842 5841 5839 5838 5837 5836 5835 5833 5830 5827 5825 5824 5822 5821 5820 5819 5819 5817 5814 5813 5811 5809 5807 5806 5804 5803 5802 5802 5802 5802 5799 5797
5863 5861 5858 5856 5854 5851 5849 5848 5847 5845 5844 5842 5840 5840 5839 5838 5836 5835 5833 5831 5828 5826 5824 5824 5824 5824 5824 5821 5818 5816 5813 5810 5809 5807 5806 5805 5803 5803 5803 5803 5802 5800
5865 5862 5860 5858 5855 5854 5852 5850 5848 5847 5845 5843 5842 5841 5840 5839 5837 5836 5836 5835 5832 5829 5827 5827 5828 5829 5826 5822 5819 5817 5815 5813 5809 5808 5807 5806 5805 5805 5804 5804 5803 5802
5867 5864 5861 5860 5858 5856 5855 5853 5850 5848 5847 5844 5843 5842 5840 5840 5839 5838 5838 5838 5836 5834 5832 5831 5832 5832 5828 5823 5820 5818 5816 5814 5812 5809 5808 5808 5808 5808 5806 5806 5805 5803
5869 5866 5863 5862 5861 5859 5856 5854 5851 5849 5848 5846 5845 5844 5843 5842 5841 5841 5840 5840 5839 5837 5835 5836 5836 5834 5830 5825 5822 5819 5816 5814 5813 5812 5811 5810 5810 5810 5809 5808 5807 5804
5869 5868 5866 5864 5862 5859 5856 5854 5852 5851 5850 5848 5847 5846 5844 5843 5843 5842 5841 5841 5841 5839 5838 5838 5839 5837 5832 5827 5823 5820 5816 5814 5813 5813 5812 5813 5813 5812 5811 5810 5808 5805
5871 5869 5867 5865 5862 5859 5856 5855 5853 5852 5851 5850 5850 5848 5846 5845 5844 5843 5843 5843 5842 5841 5839 5840 5842 5840 5834 5829 5824 5820 5815 5812 5813 5813 5813 5814 5814 5814 5813 5811 5809 5808
5873 5870 5867 5865 5862 5859 5857 5856 5854 5854 5853 5852 5851 5850 5849 5848 5847 5846 5845 5844 5843 5842 5841 5841 5843 5840 5835 5830 5825 5819 5814 5812 5812 5813 5813 5813 5814 5814 5813 5812 5810 5809
5875 5871 5867 5865 5862 5860 5858 5858 5857 5856 5854 5853 5851 5850 5850 5850 5849 5848 5848 5845 5844 5843 5841 5841 5842 5839 5834 5829 5825 5819 5815 5814 5813 5812 5812 5813 5814 5813 5813 5813 5812 5810
5874 5871 5867 5864 5862 5861 5860 5860 5859 5857 5856 5855 5852 5850 5850 5851 5850 5848 5848 5847 5846 5844 5842 5840 5840 5838 5834 5829 5825 5820 5816 5815 5814 5811 5811 5812 5812 5813 5814 5814 5812 5809
5875 5872 5868 5865 5863 5863 5861 5860 5858 5856 5855 5854 5852 5850 5849 5849 5848 5847 5846 5847 5846 5844 5842 5839 5839 5839 5835 5831 5828 5823 5819 5817 5814 5810 5809 5810 5810 5810 5812 5812 5810 5806
5876 5872 5870 5867 5865 5863 5861 5859 5858 5856 5854 5853 5852 5850 5848 5847 5847 5846 5845 5845 5846 5844 5843 5842 5841 5840 5837 5833 5830 5825 5821 5819 5813 5809 5809 5809 5809 5809 5808 5806 5804 5803